Location: Luxembourg
(49.6117°N, 6.1300°E)
Time: 14:48:09
(UTC+01:00)

Amateur Radio Satellites - All Passes

Search period start: 20 November 2017 14:18
Search period end: 21 November 2017 14:18
Location: Luxembourg, 49.6117°N, 6.1300°E

Satellite Date Start Highest point End Downlink Frequencies (MHz)
Time Altitude Azimuth
AO-85 20 Nov 14:18:28 14:22:36 31° 241° (WSW) 14:26:57 145.980
DX 1 20 Nov 14:19:27 14:23:49 58° 101° (ESE) 14:28:08 434.975-435.025
MOZHAYETS 4 20 Nov 14:29:47 14:31:09 11° 86° (E) 14:32:30
AO-7 20 Nov 14:30:32 14:38:44 72° 65° (ENE) 14:47:01 .
SPROUT 20 Nov 14:37:55 14:40:49 18° 300° (WNW) 14:43:42 437.525
Oscar 19 20 Nov 14:41:25 14:44:41 17° 271° (W) 14:47:58 437.125/150
50 SAT 20 Nov 14:48:33 14:51:41 46° 288° (WNW) 14:54:46 437.505
ITAMSAT 1 20 Nov 14:49:30 14:54:35 54° 68° (ENE) 14:59:42 435.822/435.867
Gurwin Techsat 1B 20 Nov 14:57:04 15:00:39 18° 271° (W) 15:04:15 435.225
UKube-1 20 Nov 15:04:04 15:08:26 80° 287° (WNW) 15:12:45 .
VELOX 1 20 Nov 15:07:42 15:10:29 17° 302° (WNW) 15:13:17 145.980
O/OREOS (USA 219) 20 Nov 15:08:31 15:12:59 49° 303° (WNW) 15:17:28 437.305
BEESAT 20 Nov 15:32:31 15:36:50 33° 96° (E) 15:41:06 436.000
YUBILEINY 20 Nov 15:34:08 15:41:34 29° 59° (ENE) 15:48:56 435.215
NO-84 20 Nov 15:35:14 15:37:53 18° 130° (SE) 15:40:40 435.350 FM
ITUPSAT 1 20 Nov 15:41:20 15:45:49 38° 98° (E) 15:50:14 437.325
HO-68 20 Nov 15:51:26 15:53:51 12° 36° (NE) 15:56:18 435.675
DOVE 4 20 Nov 15:55:23 16:00:04 39° 66° (ENE) 16:04:56 437.250
DX 1 20 Nov 15:56:27 15:59:37 20° 300° (WNW) 16:02:44 434.975-435.025
MOZHAYETS 4 20 Nov 16:04:25 16:09:01 85° 105° (ESE) 16:13:35
CUBESAT XI-V 20 Nov 16:13:11 16:17:16 29° 94° (E) 16:21:21 437.345
CUTE-I 20 Nov 16:15:42 16:19:07 17° 54° (NE) 16:22:32 437.470
AO-7 20 Nov 16:25:02 16:32:11 32° 266° (W) 16:39:24 .
ITAMSAT 1 20 Nov 16:30:05 16:34:21 25° 267° (W) 16:38:39 435.822/435.867
KAITUO 1B 20 Nov 16:34:30 16:36:03 12° 59° (ENE) 16:37:36 145.475/437.950
UKube-1 20 Nov 16:42:02 16:43:43 12° 305° (NW) 16:45:24 .
XW-2D 20 Nov 16:45:07 16:47:58 21° 64° (ENE) 16:50:51 145.860 - 145.880
O/OREOS (USA 219) 20 Nov 16:52:14 16:53:33 11° 325° (NW) 16:54:54 437.305
XW-2B 20 Nov 16:59:29 17:02:41 28° 67° (ENE) 17:05:55 145.730 - 145.750
CUTE 1.7 + AOD 2 20 Nov 17:07:50 17:09:26 12° 56° (ENE) 17:11:03 437.475
BEESAT 20 Nov 17:10:17 17:14:37 36° 295° (WNW) 17:18:55 436.000
NO-84 20 Nov 17:10:50 17:14:42 86° 149° (SSE) 17:18:51 435.350 FM
NUDT-PHONESAT 20 Nov 17:18:59 17:22:13 31° 68° (ENE) 17:25:30 437.300
ITUPSAT 1 20 Nov 17:19:22 17:23:32 31° 297° (WNW) 17:27:41 437.325
XW-2C 20 Nov 17:24:30 17:28:07 52° 72° (ENE) 17:31:47 145.795 - 145.815
LilacSat-2 20 Nov 17:25:07 17:28:48 57° 72° (ENE) 17:32:30 437.200
YUBILEINY 20 Nov 17:30:35 17:39:29 82° 263° (W) 17:48:19 435.215
DOVE 4 20 Nov 17:33:08 17:37:45 35° 266° (W) 17:42:35 437.250
HO-68 20 Nov 17:33:08 17:39:44 41° 59° (ENE) 17:46:22 435.675
XW-2F 20 Nov 17:36:07 17:39:48 66° 74° (ENE) 17:43:31 145.980 - 146.000
SEEDS 20 Nov 17:39:24 17:41:50 15° 59° (ENE) 17:44:16 437.485
MOZHAYETS 4 20 Nov 17:42:59 17:45:34 15° 303° (WNW) 17:48:08
CUBESAT XI-V 20 Nov 17:50:22 17:54:43 39° 293° (WNW) 17:59:04 437.345
CUBEBUG 2 20 Nov 17:51:19 17:54:39 21° 62° (ENE) 17:57:57 437.445
CUTE-I 20 Nov 17:53:03 17:58:26 87° 72° (ENE) 18:03:52 437.470
KKS-1 20 Nov 18:03:53 18:08:23 79° 103° (ESE) 18:12:51 437.445
KAITUO 1B 20 Nov 18:05:49 18:09:30 72° 259° (WSW) 18:13:12 145.475/437.950
RS-15 20 Nov 18:13:22 18:23:36 33° 104° (ESE) 18:33:46 29.354- 29.394
XW-2D 20 Nov 18:18:28 18:21:57 37° 263° (W) 18:25:28 145.860 - 145.880
STARS 20 Nov 18:31:00 18:35:24 64° 102° (ESE) 18:39:45 437.465
XW-2B 20 Nov 18:33:38 18:36:50 27° 265° (W) 18:40:04 145.730 - 145.750
CUTE 1.7 + AOD 2 20 Nov 18:40:22 18:44:34 85° 78° (ENE) 18:48:50 437.475
ZACube-1 20 Nov 18:42:57 18:46:07 20° 62° (ENE) 18:49:16 437.345
NO-84 20 Nov 18:48:33 18:52:23 41° 351° (N) 18:56:24 435.350 FM
UWE-3 20 Nov 18:49:17 18:53:25 40° 69° (ENE) 18:57:28 435.000/436.395/437.385
NUDT-PHONESAT 20 Nov 18:53:12 18:56:08 22° 266° (W) 18:59:04 437.300
XW-2A 20 Nov 18:56:30 18:59:34 36° 70° (ENE) 19:02:40 145.665 - 145.685
XW-2C 20 Nov 19:00:28 19:02:37 15° 270° (W) 19:04:47 145.795 - 145.815
LilacSat-2 20 Nov 19:01:28 19:03:26 14° 271° (W) 19:05:24 437.200
SEEDS 20 Nov 19:12:50 19:16:59 71° 257° (WSW) 19:21:12 437.485
XW-2F 20 Nov 19:12:57 19:14:21 12° 272° (W) 19:15:45 145.980 - 146.000
HO-68 20 Nov 19:20:22 19:27:21 52° 260° (W) 19:34:22 435.675
AAUSAT CUBESAT 2 20 Nov 19:22:33 19:26:38 68° 73° (ENE) 19:30:47 437.432
CUBEBUG 2 20 Nov 19:26:26 19:30:57 56° 260° (W) 19:35:21 437.445
YUBILEINY 20 Nov 19:28:56 19:34:53 21° 286° (WNW) 19:40:51 435.215
AO-73 20 Nov 19:33:22 19:37:32 52° 71° (ENE) 19:41:38 145.935
CUTE-I 20 Nov 19:36:03 19:39:13 16° 273° (W) 19:42:23 437.470
KKS-1 20 Nov 19:41:42 19:44:22 16° 303° (WNW) 19:47:01 437.445
Oscar 11 20 Nov 19:50:47 19:54:58 54° 71° (ENE) 19:59:11 .
STRAND 1 20 Nov 19:58:59 20:04:02 55° 101° (E) 20:09:03 437.568
DELFI C3 20 Nov 20:03:22 20:06:05 18° 62° (ENE) 20:08:49 145.870
STARS 20 Nov 20:08:17 20:11:18 18° 301° (WNW) 20:14:17 437.465
FO-29 20 Nov 20:14:43 20:21:37 32° 90° (E) 20:28:14 435.910
ZACube-1 20 Nov 20:17:54 20:22:07 50° 261° (W) 20:26:15 437.345
CUTE 1.7 + AOD 2 20 Nov 20:19:44 20:21:02 11° 274° (W) 20:22:20 437.475
RS-15 20 Nov 20:22:22 20:34:46 89° 305° (NW) 20:47:02 29.354- 29.394
UWE-3 20 Nov 20:26:18 20:30:00 25° 266° (W) 20:33:37 435.000/436.395/437.385
NO-84 20 Nov 20:26:21 20:30:22 44° 12° (NNE) 20:34:28 435.350 FM
XW-2A 20 Nov 20:30:18 20:32:26 16° 268° (W) 20:34:35 145.665 - 145.685
AAUSAT CUBESAT 2 20 Nov 21:00:25 21:02:34 14° 272° (W) 21:04:43 437.432
AO-73 20 Nov 21:11:04 21:14:04 18° 269° (W) 21:17:02 145.935
Max Valier Satellite 20 Nov 21:18:52 21:22:29 72° 75° (ENE) 21:26:09 145.860
EO-88 20 Nov 21:19:19 21:22:49 51° 73° (ENE) 21:26:22 145.990 - 145.960
nSIGHT-1 20 Nov 21:20:02 21:22:00 15° 139° (SE) 21:23:58 .
Oscar 11 20 Nov 21:28:29 21:31:27 18° 270° (W) 21:34:25 .
DELFI C3 20 Nov 21:36:36 21:40:28 52° 260° (W) 21:44:24 145.870
STRAND 1 20 Nov 21:38:45 21:42:54 25° 300° (WNW) 21:47:03 437.568
SO-50 20 Nov 21:41:13 21:44:00 16° 112° (ESE) 21:46:48 436.795
LO-87 20 Nov 21:47:40 21:50:05 17° 63° (ENE) 21:52:30 145.935 - 145.965
UNISAT 6 20 Nov 21:51:19 21:55:04 29° 95° (E) 21:58:47 437.425
TIGRISAT 20 Nov 21:55:54 21:59:40 29° 95° (E) 22:03:22 435.000
O/OREOS (USA 219) 20 Nov 21:56:16 21:59:23 18° 43° (NE) 22:02:28 437.305
FO-29 20 Nov 21:59:19 22:07:09 70° 291° (WNW) 22:14:42 435.910
ISS 20 Nov 22:00:23 22:03:10 26° 144° (SE) 22:05:57 437.550
NO-84 20 Nov 22:03:45 22:08:00 77° 213° (SSW) 22:12:16 435.350 FM
SPROUT 20 Nov 22:25:43 22:27:08 11° 55° (NE) 22:28:34 437.525
ESTCUBE 1 20 Nov 22:31:15 22:35:27 41° 68° (ENE) 22:39:42 437.505/2401.250
RS-15 20 Nov 22:37:12 22:48:56 46° 338° (NNW) 23:00:23 29.354- 29.394
nSIGHT-1 20 Nov 22:54:35 22:57:47 67° 157° (SSE) 23:00:58 .
EO-88 20 Nov 22:54:48 22:56:47 14° 270° (W) 22:58:46 145.990 - 145.960
Max Valier Satellite 20 Nov 22:56:04 22:56:47 10° 272° (W) 22:57:29 145.860
VELOX 1 20 Nov 22:56:53 22:59:39 16° 58° (ENE) 23:02:24 145.980
PRISM 20 Nov 23:05:13 23:09:21 57° 101° (ESE) 23:13:26 437.425
SO-50 20 Nov 23:19:24 23:23:52 80° 311° (NW) 23:28:25 436.795
LO-87 20 Nov 23:19:43 23:23:12 44° 261° (W) 23:26:40 145.935 - 145.965
EO-79 20 Nov 23:25:51 23:27:49 13° 88° (E) 23:29:46 145.935-145.965
UNISAT 6 20 Nov 23:27:57 23:31:49 33° 294° (WNW) 23:35:39 437.425
NANOSAT C BR1 20 Nov 23:29:43 23:31:33 13° 88° (E) 23:33:23 145.865
TIGRISAT 20 Nov 23:32:32 23:36:23 33° 293° (WNW) 23:40:10 435.000
O/OREOS (USA 219) 20 Nov 23:34:52 23:39:27 86° 244° (WSW) 23:43:59 437.305
PCSat 20 Nov 23:35:38 23:37:22 11° 102° (ESE) 23:39:06 145.827
ISS 20 Nov 23:36:07 23:39:23 85° 342° (NNW) 23:42:41 437.550
POLYITAN 1 20 Nov 23:40:12 23:43:06 18° 91° (E) 23:46:00 437.675
NO-84 20 Nov 23:41:56 23:44:51 18° 230° (SW) 23:47:45 435.350 FM
FO-29 20 Nov 23:45:27 23:50:52 21° 312° (NW) 23:56:14 435.910
DX 1 20 Nov 23:45:32 23:47:35 13° 55° (NE) 23:49:40 434.975-435.025
AIST 2D 20 Nov 23:50:05 23:53:35 63° 101° (E) 23:57:05 435.315
SPROUT 20 Nov 23:58:00 00:02:18 78° 74° (ENE) 00:06:36 437.525
QB50P2 21 Nov 00:02:49 00:06:38 32° 96° (E) 00:10:25 145.880/145.840
ESTCUBE 1 21 Nov 00:08:42 00:12:25 25° 267° (W) 00:16:09 437.505/2401.250
UKube-1 21 Nov 00:27:46 00:30:57 20° 60° (ENE) 00:34:09 .
nSIGHT-1 21 Nov 00:30:55 00:34:05 58° 357° (N) 00:37:15 .
VELOX 1 21 Nov 00:31:06 00:35:32 75° 256° (WSW) 00:40:02 145.980
PRISM 21 Nov 00:41:21 00:44:13 18° 300° (WNW) 00:47:05 437.425
DUCHIFAT 1 21 Nov 00:53:24 00:57:36 75° 104° (ESE) 01:01:44 145.980
RS-15 21 Nov 00:53:38 01:04:59 41° 11° (NNE) 01:15:51 29.354- 29.394
EO-79 21 Nov 00:59:53 01:04:06 74° 285° (WNW) 01:08:16 145.935-145.965
SO-50 21 Nov 01:01:34 01:05:02 21° 333° (NNW) 01:08:32 436.795
NANOSAT C BR1 21 Nov 01:03:36 01:07:48 76° 285° (WNW) 01:11:57 145.865
Oscar 19 21 Nov 01:07:32 01:11:12 19° 90° (E) 01:14:51 437.125/150
BEESAT 21 Nov 01:09:14 01:10:36 11° 51° (NE) 01:11:58 436.000
ISS 21 Nov 01:12:47 01:16:02 58° 3° (N) 01:19:16 437.550
PCSat 21 Nov 01:14:22 01:19:44 67° 121° (ESE) 01:25:08 145.827
POLYITAN 1 21 Nov 01:15:06 01:19:12 52° 289° (WNW) 01:23:15 437.675
O/OREOS (USA 219) 21 Nov 01:16:38 01:18:05 11° 263° (W) 01:19:30 437.305
ITUPSAT 1 21 Nov 01:17:35 01:19:43 13° 53° (NE) 01:21:51 437.325
DX 1 21 Nov 01:18:43 01:23:05 87° 80° (E) 01:27:31 434.975-435.025
50 SAT 21 Nov 01:19:04 01:22:19 78° 258° (WSW) 01:25:35 437.505
AIST 2D 21 Nov 01:24:44 01:26:18 13° 299° (WNW) 01:27:53 435.315
Gurwin Techsat 1B 21 Nov 01:27:15 01:31:17 21° 91° (E) 01:35:17 435.225
MOZHAYETS 4 21 Nov 01:34:51 01:38:05 20° 60° (ENE) 01:41:20
SPROUT 21 Nov 01:36:46 01:38:44 13° 272° (W) 01:40:41 437.525
QB50P2 21 Nov 01:38:43 01:42:22 29° 294° (WNW) 01:45:59 145.880/145.840
BUGSAT 1 21 Nov 01:48:38 01:52:42 75° 103° (ESE) 01:56:43 437.445
UKube-1 21 Nov 02:02:23 02:06:38 54° 259° (W) 02:10:54 .
nSIGHT-1 21 Nov 02:07:16 02:10:30 83° 21° (NNE) 02:13:42 .
AO-7 21 Nov 02:28:51 02:33:41 16° 85° (E) 02:38:28 .
DUCHIFAT 1 21 Nov 02:30:24 02:32:43 15° 302° (WNW) 02:35:00 145.980
EO-79 21 Nov 02:38:11 02:39:05 11° 305° (NW) 02:40:00 145.935-145.965
NANOSAT C BR1 21 Nov 02:41:43 02:42:45 11° 305° (NW) 02:43:47 145.865
BEESAT 21 Nov 02:42:44 02:47:27 63° 71° (ENE) 02:52:11 436.000
SO-50 21 Nov 02:45:13 02:47:10 12° 357° (N) 02:49:08 436.795
Oscar 19 21 Nov 02:45:53 02:51:01 69° 289° (WNW) 02:56:09 437.125/150
ISS 21 Nov 02:49:20 02:52:37 69° 202° (SSW) 02:55:51 437.550
BEESAT 3 21 Nov 02:50:37 02:53:35 20° 115° (ESE) 02:56:35 437.485
ITUPSAT 1 21 Nov 02:51:58 02:56:45 74° 72° (ENE) 03:01:32 437.325
DX 1 21 Nov 02:58:17 02:59:55 12° 273° (W) 03:01:33 434.975-435.025
PCSat 21 Nov 02:58:50 03:03:35 30° 322° (NW) 03:08:22 145.827
ITAMSAT 1 21 Nov 02:59:39 03:02:00 13° 86° (E) 03:04:22 435.822/435.867
M-CUBED/EXP-1 PRIME 21 Nov 03:05:41 03:09:50 35° 103° (ESE) 03:14:05 437.505
Gurwin Techsat 1B 21 Nov 03:06:23 03:11:41 65° 289° (WNW) 03:16:56 435.225
RS-15 21 Nov 03:07:48 03:19:54 71° 43° (NE) 03:31:17 29.354- 29.394
MOZHAYETS 4 21 Nov 03:10:18 03:14:50 62° 259° (W) 03:19:22
CUBESAT XI-V 21 Nov 03:20:21 03:24:44 45° 69° (ENE) 03:29:09 437.345
BUGSAT 1 21 Nov 03:25:25 03:27:30 14° 302° (WNW) 03:29:36 437.445
KKS-1 21 Nov 03:31:07 03:34:09 18° 59° (ENE) 03:37:13 437.445
nSIGHT-1 21 Nov 03:43:46 03:46:29 26° 215° (SW) 03:49:12 .
STARS 21 Nov 03:57:35 04:00:02 15° 56° (ENE) 04:02:28 437.465
BEESAT 2 21 Nov 04:00:01 04:03:34 30° 118° (ESE) 04:07:07 435.950
AO-7 21 Nov 04:19:39 04:28:01 69° 106° (ESE) 04:36:21 .
BEESAT 21 Nov 04:22:17 04:25:39 19° 270° (W) 04:29:01 436.000
SO-50 21 Nov 04:26:15 04:29:26 18° 22° (NNE) 04:32:37 436.795
ISS 21 Nov 04:26:33 04:28:38 16° 221° (SW) 04:30:43 437.550
BEESAT 3 21 Nov 04:26:52 04:30:48 56° 314° (NW) 04:34:46 437.485
Oscar 19 21 Nov 04:27:05 04:29:26 13° 309° (NW) 04:31:48 437.125/150
ITUPSAT 1 21 Nov 04:32:11 04:35:07 16° 271° (W) 04:38:02 437.325
ITAMSAT 1 21 Nov 04:37:02 04:42:18 83° 105° (ESE) 04:47:31 435.822/435.867
AO-85 21 Nov 04:37:10 04:40:30 27° 117° (ESE) 04:44:00 145.980
M-CUBED/EXP-1 PRIME 21 Nov 04:40:07 04:44:09 34° 299° (WNW) 04:48:19 437.505
YUBILEINY 21 Nov 04:42:31 04:49:14 26° 78° (ENE) 04:55:59 435.215
PCSat 21 Nov 04:46:06 04:48:48 14° 347° (NNW) 04:51:30 145.827
Gurwin Techsat 1B 21 Nov 04:48:18 04:50:39 13° 310° (NW) 04:53:01 435.225
CUBESAT XI-V 21 Nov 04:58:35 05:02:19 24° 268° (W) 05:06:05 437.345
KKS-1 21 Nov 05:05:47 05:10:14 67° 257° (WSW) 05:14:44 437.445
RS-15 21 Nov 05:20:54 05:31:48 46° 249° (WSW) 05:42:11 29.354- 29.394
DOVE 4 21 Nov 05:27:00 05:32:10 54° 99° (E) 05:37:05 437.250
STARS 21 Nov 05:31:18 05:35:45 85° 253° (WSW) 05:40:13 437.465
BEESAT 2 21 Nov 05:37:21 05:41:11 40° 318° (NW) 05:45:03 435.950
STRAND 1 21 Nov 05:41:46 05:45:34 21° 58° (ENE) 05:49:24 437.568
XW-2D 21 Nov 05:46:55 05:49:25 17° 91° (E) 05:51:56 145.860 - 145.880
XW-2B 21 Nov 06:01:19 06:04:22 22° 93° (E) 06:07:24 145.730 - 145.750
CUTE-I 21 Nov 06:06:07 06:10:32 25° 92° (E) 06:14:54 437.470
SO-50 21 Nov 06:06:16 06:10:50 56° 45° (NE) 06:15:26 436.795
BEESAT 3 21 Nov 06:06:46 06:09:10 15° 336° (NNW) 06:11:34 437.485
AO-7 21 Nov 06:12:57 06:20:19 37° 308° (NW) 06:27:41 .
AO-85 21 Nov 06:16:58 06:20:44 41° 319° (NW) 06:24:44 145.980
ITAMSAT 1 21 Nov 06:17:36 06:21:09 19° 305° (NW) 06:24:41 435.822/435.867
NUDT-PHONESAT 21 Nov 06:18:10 06:21:13 24° 94° (E) 06:24:16 437.300
CUTE 1.7 + AOD 2 21 Nov 06:22:48 06:24:12 11° 86° (E) 06:25:37 437.475
XW-2C 21 Nov 06:26:29 06:30:07 42° 98° (E) 06:33:45 145.795 - 145.815
LilacSat-2 21 Nov 06:27:53 06:31:36 47° 99° (E) 06:35:18 437.200
PCSat 21 Nov 06:31:47 06:34:37 14° 14° (NNE) 06:37:26 145.827
FO-29 21 Nov 06:32:06 06:37:30 25° 51° (NE) 06:43:18 435.910
YUBILEINY 21 Nov 06:36:13 06:45:01 84° 281° (W) 06:53:54 435.215
XW-2F 21 Nov 06:37:32 06:41:15 52° 100° (E) 06:44:58 145.980 - 146.000
HO-68 21 Nov 06:43:22 06:49:19 27° 91° (E) 06:55:11 435.675
SEEDS 21 Nov 06:53:14 06:55:41 15° 89° (E) 06:58:06 437.485
DOVE 4 21 Nov 07:05:11 07:09:29 26° 299° (WNW) 07:13:41 437.250
KAITUO 1B 21 Nov 07:06:06 07:09:53 87° 101° (E) 07:13:40 145.475/437.950
STARS 21 Nov 07:11:41 07:12:47 11° 274° (W) 07:13:53 437.465
CUBEBUG 2 21 Nov 07:13:20 07:16:33 21° 92° (E) 07:19:44 437.445
BEESAT 2 21 Nov 07:17:58 07:19:58 13° 340° (NNW) 07:21:57 435.950
STRAND 1 21 Nov 07:19:09 07:24:16 70° 256° (WSW) 07:29:27 437.568
XW-2D 21 Nov 07:20:11 07:23:50 47° 289° (WNW) 07:27:31 145.860 - 145.880
XW-2B 21 Nov 07:35:09 07:38:37 34° 291° (WNW) 07:42:05 145.730 - 145.750
CUTE-I 21 Nov 07:45:39 07:50:55 56° 291° (WNW) 07:56:08 437.470
XW-2A 21 Nov 07:46:19 07:48:58 21° 94° (E) 07:51:37 145.665 - 145.685
SO-50 21 Nov 07:47:11 07:51:02 26° 244° (WSW) 07:54:55 436.795
NUDT-PHONESAT 21 Nov 07:51:48 07:55:06 31° 292° (WNW) 07:58:23 437.300
CUTE 1.7 + AOD 2 21 Nov 07:56:21 08:00:38 86° 287° (WNW) 08:04:56 437.475
AO-85 21 Nov 08:00:02 08:02:16 14° 342° (NNW) 08:04:34 145.980
XW-2C 21 Nov 08:01:16 08:04:02 20° 296° (WNW) 08:06:50 145.795 - 145.815
ZACube-1 21 Nov 08:01:59 08:05:12 21° 92° (E) 08:08:24 437.345
LilacSat-2 21 Nov 08:02:54 08:05:34 18° 297° (WNW) 08:08:14 437.200
AO-7 21 Nov 08:07:21 08:10:44 13° 333° (NNW) 08:14:08 .
UWE-3 21 Nov 08:10:24 08:14:25 45° 99° (E) 08:18:24 435.000/436.395/437.385
XW-2F 21 Nov 08:12:34 08:15:00 17° 298° (WNW) 08:17:26 145.980 - 146.000
FO-29 21 Nov 08:14:45 08:21:31 89° 77° (ENE) 08:29:09 435.910
PCSat 21 Nov 08:14:52 08:19:45 32° 39° (NE) 08:24:36 145.827
PRISM 21 Nov 08:26:57 08:27:40 10° 54° (NE) 08:28:24 437.425
SEEDS 21 Nov 08:27:35 08:31:47 66° 287° (WNW) 08:36:00 437.485
HO-68 21 Nov 08:30:30 08:37:42 73° 292° (WNW) 08:44:50 435.675
AAUSAT CUBESAT 2 21 Nov 08:35:18 08:39:30 71° 101° (E) 08:43:40 437.432
YUBILEINY 21 Nov 08:36:38 08:43:20 24° 305° (NW) 08:50:07 435.215
KAITUO 1B 21 Nov 08:42:14 08:43:16 11° 302° (WNW) 08:44:18 145.475/437.950
CUBEBUG 2 21 Nov 08:49:25 08:53:24 42° 291° (WNW) 08:57:19 437.445
AO-73 21 Nov 08:52:39 08:56:44 61° 101° (E) 09:00:51 145.935
UNISAT 6 21 Nov 08:53:43 08:58:02 44° 69° (ENE) 09:02:17 437.425
TIGRISAT 21 Nov 08:58:08 09:02:28 45° 69° (ENE) 09:06:43 435.000
STRAND 1 21 Nov 09:03:31 09:04:25 10° 276° (W) 09:05:19 437.568
Oscar 11 21 Nov 09:09:20 09:13:39 63° 101° (E) 09:17:57 .
DELFI C3 21 Nov 09:09:56 09:12:17 15° 89° (E) 09:14:36 145.870
XW-2A 21 Nov 09:18:46 09:21:40 28° 292° (WNW) 09:24:36 145.665 - 145.685
BEESAT 3 21 Nov 09:25:19 09:27:36 14° 23° (NNE) 09:29:51 437.485
CUTE-I 21 Nov 09:28:07 09:29:51 12° 312° (NW) 09:31:36 437.470
CUTE 1.7 + AOD 2 21 Nov 09:34:01 09:35:48 12° 303° (WNW) 09:37:34 437.475
ZACube-1 21 Nov 09:37:45 09:41:41 42° 290° (WNW) 09:45:36 437.345
AO-85 21 Nov 09:43:01 09:44:32 12° 8° (N) 09:46:05 145.980
UWE-3 21 Nov 09:47:29 09:50:37 21° 297° (WNW) 09:53:44 435.000/436.395/437.385
PRISM 21 Nov 09:58:03 10:02:10 73° 72° (ENE) 10:06:19 437.425
PCSat 21 Nov 09:58:08 10:03:30 61° 240° (WSW) 10:08:49 145.827
FO-29 21 Nov 10:02:37 10:07:39 21° 276° (W) 10:13:06 435.910
AAUSAT CUBESAT 2 21 Nov 10:11:59 10:14:26 15° 301° (WNW) 10:16:54 437.432
DUCHIFAT 1 21 Nov 10:15:55 10:17:57 13° 57° (ENE) 10:19:57 145.980
EO-88 21 Nov 10:16:55 10:20:19 36° 97° (E) 10:23:43 145.990 - 145.960
Max Valier Satellite 21 Nov 10:17:53 10:21:30 52° 101° (E) 10:25:05 145.860
HO-68 21 Nov 10:19:24 10:24:18 20° 313° (NW) 10:29:12 435.675
EO-79 21 Nov 10:21:53 10:24:49 19° 61° (ENE) 10:27:46 145.935-145.965
NANOSAT C BR1 21 Nov 10:25:22 10:28:13 18° 60° (ENE) 10:31:05 145.865
AIST 2D 21 Nov 10:28:03 10:31:19 42° 71° (ENE) 10:34:39 435.315
AO-73 21 Nov 10:29:54 10:32:34 17° 300° (WNW) 10:35:13 145.935
UNISAT 6 21 Nov 10:31:13 10:34:55 24° 267° (W) 10:38:34 437.425
TIGRISAT 21 Nov 10:35:40 10:39:20 24° 267° (W) 10:42:57 435.000
BEESAT 2 21 Nov 10:35:54 10:38:46 18° 28° (NNE) 10:41:35 435.950
POLYITAN 1 21 Nov 10:36:31 10:39:57 24° 64° (ENE) 10:43:23 437.675
DELFI C3 21 Nov 10:43:26 10:47:23 59° 288° (WNW) 10:51:19 145.870
LO-87 21 Nov 10:44:08 10:44:54 11° 88° (E) 10:45:39 145.935 - 145.965
Oscar 11 21 Nov 10:46:27 10:49:21 18° 300° (WNW) 10:52:15 .
QB50P2 21 Nov 10:59:06 11:03:07 43° 69° (ENE) 11:07:08 145.880/145.840
BEESAT 3 21 Nov 11:02:07 11:06:01 52° 45° (NE) 11:09:51 437.485
BUGSAT 1 21 Nov 11:09:26 11:11:18 13° 57° (ENE) 11:13:09 437.445
Gurwin Techsat 1B 21 Nov 11:17:39 11:18:35 10° 47° (NE) 11:19:31 435.225
AO-85 21 Nov 11:22:52 11:26:29 23° 32° (NNE) 11:30:19 145.980
PRISM 21 Nov 11:35:58 11:37:56 13° 272° (W) 11:39:54 437.425
AO-7 21 Nov 11:45:16 11:48:50 14° 28° (NNE) 11:52:25 .
DUCHIFAT 1 21 Nov 11:48:46 11:52:59 86° 254° (WSW) 11:57:14 145.980
EO-88 21 Nov 11:51:00 11:53:46 21° 295° (WNW) 11:56:32 145.990 - 145.960
Max Valier Satellite 21 Nov 11:52:44 11:54:56 15° 298° (WNW) 11:57:09 145.860
ESTCUBE 1 21 Nov 11:55:31 11:59:56 49° 100° (E) 12:04:20 437.505/2401.250
EO-79 21 Nov 11:56:00 12:00:11 57° 259° (WSW) 12:04:23 145.935-145.965
NANOSAT C BR1 21 Nov 11:59:21 12:03:31 59° 259° (W) 12:07:43 145.865
AIST 2D 21 Nov 12:02:36 12:04:43 15° 269° (W) 12:06:52 435.315
POLYITAN 1 21 Nov 12:11:32 12:15:32 40° 262° (W) 12:19:34 437.675
BEESAT 2 21 Nov 12:13:04 12:17:09 77° 49° (NE) 12:21:08 435.950
LO-87 21 Nov 12:15:11 12:18:45 67° 286° (WNW) 12:22:14 145.935 - 145.965
VELOX 1 21 Nov 12:17:45 12:20:27 16° 89° (E) 12:23:07 145.980
M-CUBED/EXP-1 PRIME 21 Nov 12:24:06 12:25:20 11° 48° (NE) 12:26:36 437.505
Oscar 19 21 Nov 12:28:14 12:33:02 43° 66° (ENE) 12:37:52 437.125/150
QB50P2 21 Nov 12:35:44 12:39:05 22° 267° (W) 12:42:26 145.880/145.840
BEESAT 3 21 Nov 12:40:13 12:43:15 21° 245° (WSW) 12:46:14 437.485
BUGSAT 1 21 Nov 12:41:49 12:46:02 89° 258° (WSW) 12:50:13 437.445
Gurwin Techsat 1B 21 Nov 12:52:14 12:57:22 51° 68° (ENE) 13:02:31 435.225
AO-85 21 Nov 13:02:50 13:07:26 88° 226° (SW) 13:12:24 145.980
DX 1 21 Nov 13:04:48 13:06:01 11° 87° (E) 13:07:16 434.975-435.025
SPROUT 21 Nov 13:14:51 13:19:08 82° 101° (ESE) 13:23:22 437.525
AO-7 21 Nov 13:31:55 13:39:20 38° 53° (NE) 13:46:46 .
ESTCUBE 1 21 Nov 13:32:53 13:36:28 23° 298° (WNW) 13:40:02 437.505/2401.250
UKube-1 21 Nov 13:45:36 13:48:36 18° 91° (E) 13:51:35 .
O/OREOS (USA 219) 21 Nov 13:51:15 13:55:40 47° 110° (ESE) 14:00:06 437.305
BEESAT 2 21 Nov 13:52:04 13:54:19 15° 248° (WSW) 13:56:33 435.950
VELOX 1 21 Nov 13:52:54 13:57:22 68° 288° (WNW) 14:01:46 145.980
M-CUBED/EXP-1 PRIME 21 Nov 13:55:21 13:58:58 80° 70° (ENE) 14:02:55 437.505
50 SAT 21 Nov 14:04:06 14:07:13 43° 100° (E) 14:10:19 437.505
Oscar 19 21 Nov 14:08:00 14:12:29 30° 265° (W) 14:17:00 437.125/150
